#datetime,building,power
2022-11-29T00:00:00,pkn,2.40
2022-11-29T00:02:00,pkn,1.20
2022-11-29T00:04:00,pkn,2.40
2022-11-29T00:06:00,pkn,2.40
2022-11-29T00:07:00,pkn,1.20
2022-11-29T00:09:00,pkn,1.20
2022-11-29T00:11:00,pkn,2.40
2022-11-29T00:12:00,pkn,1.20
2022-11-29T00:13:00,pkn,1.20
2022-11-29T00:15:00,pkn,1.20
2022-11-29T00:16:00,pkn,6.00
2022-11-29T00:18:00,pkn,9.60
2022-11-29T00:19:00,pkn,4.80
2022-11-29T00:21:00,pkn,10.80
2022-11-29T00:23:00,pkn,9.60
2022-11-29T00:25:00,pkn,9.60
2022-11-29T00:27:00,pkn,4.80
2022-11-29T00:29:00,pkn,1.20
2022-11-29T00:30:00,pkn,1.20
2022-11-29T00:32:00,pkn,1.20
2022-11-29T00:33:00,pkn,1.20
2022-11-29T00:35:00,pkn,1.20
2022-11-29T00:37:00,pkn,1.20
2022-11-29T00:38:00,pkn,1.20
2022-11-29T00:40:00,pkn,1.20
2022-11-29T00:42:00,pkn,1.20
2022-11-29T00:44:00,pkn,1.20
2022-11-29T00:46:00,pkn,1.20
2022-11-29T00:48:00,pkn,1.20
2022-11-29T00:49:00,pkn,1.20
2022-11-29T00:51:00,pkn,1.20
2022-11-29T00:53:00,pkn,3.60
2022-11-29T00:54:00,pkn,2.40
2022-11-29T00:56:00,pkn,4.80
2022-11-29T00:57:00,pkn,2.40
2022-11-29T00:59:00,pkn,6.00
2022-11-29T01:00:00,pkn,4.80
2022-11-29T01:02:00,pkn,9.60
2022-11-29T01:04:00,pkn,9.60
2022-11-29T01:05:00,pkn,4.80
2022-11-29T01:07:00,pkn,6.00
2022-11-29T01:09:00,pkn,1.20
2022-11-29T01:11:00,pkn,1.20
2022-11-29T01:13:00,pkn,1.20
2022-11-29T01:15:00,pkn,1.20
2022-11-29T01:16:00,pkn,1.20
2022-11-29T01:18:00,pkn,1.20
2022-11-29T01:20:00,pkn,1.20
2022-11-29T01:23:00,pkn,2.40
2022-11-29T01:25:00,pkn,1.20
2022-11-29T01:28:00,pkn,1.20
2022-11-29T01:30:00,pkn,1.20
2022-11-29T01:32:00,pkn,1.20
2022-11-29T01:33:00,pkn,1.20
2022-11-29T01:34:00,pkn,1.20
2022-11-29T01:38:00,pkn,1.20
2022-11-29T01:39:00,pkn,1.20
2022-11-29T01:41:00,pkn,1.20
2022-11-29T01:43:00,pkn,1.20
2022-11-29T01:46:00,pkn,1.20
2022-11-29T01:48:00,pkn,1.20
2022-11-29T01:50:00,pkn,7.20
2022-11-29T01:52:00,pkn,9.60
2022-11-29T01:53:00,pkn,4.80
2022-11-29T01:55:00,pkn,9.60
2022-11-29T01:57:00,pkn,7.20
2022-11-29T01:58:00,pkn,1.20
2022-11-29T02:00:00,pkn,1.20
2022-11-29T02:02:00,pkn,1.20
2022-11-29T02:06:00,pkn,2.40
2022-11-29T02:08:00,pkn,1.20
2022-11-29T02:10:00,pkn,1.20
2022-11-29T02:12:00,pkn,1.20
2022-11-29T02:14:00,pkn,1.20
2022-11-29T02:17:00,pkn,2.40
2022-11-29T02:20:00,pkn,2.40
2022-11-29T02:22:00,pkn,1.20
2022-11-29T02:23:00,pkn,1.20
2022-11-29T02:25:00,pkn,1.20
2022-11-29T02:26:00,pkn,1.20
2022-11-29T02:28:00,pkn,1.20
2022-11-29T02:29:00,pkn,1.20
2022-11-29T02:31:00,pkn,1.20
2022-11-29T02:32:00,pkn,1.20
2022-11-29T02:35:00,pkn,1.20
2022-11-29T02:37:00,pkn,1.20
2022-11-29T02:38:00,pkn,1.20
2022-11-29T02:40:00,pkn,1.20
2022-11-29T02:42:00,pkn,2.40
2022-11-29T02:44:00,pkn,1.20
2022-11-29T02:47:00,pkn,1.20
2022-11-29T02:49:00,pkn,1.20
2022-11-29T02:50:00,pkn,1.20
2022-11-29T02:52:00,pkn,1.20
2022-11-29T02:53:00,pkn,1.20
2022-11-29T02:55:00,pkn,1.20
2022-11-29T02:58:00,pkn,1.20
2022-11-29T02:59:00,pkn,1.20
2022-11-29T03:02:00,pkn,9.60
2022-11-29T03:04:00,pkn,8.40
2022-11-29T03:06:00,pkn,9.60
2022-11-29T03:08:00,pkn,6.00
2022-11-29T03:11:00,pkn,1.20
2022-11-29T03:13:00,pkn,1.20
2022-11-29T03:15:00,pkn,1.20
2022-11-29T03:16:00,pkn,1.20
2022-11-29T03:18:00,pkn,1.20
2022-11-29T03:20:00,pkn,1.20
2022-11-29T03:23:00,pkn,1.20
2022-11-29T03:25:00,pkn,2.40
2022-11-29T03:27:00,pkn,1.20
2022-11-29T03:29:00,pkn,1.20
2022-11-29T03:32:00,pkn,1.20
2022-11-29T03:33:00,pkn,1.20
2022-11-29T03:35:00,pkn,1.20
2022-11-29T03:37:00,pkn,1.20
2022-11-29T03:39:00,pkn,1.20
2022-11-29T03:42:00,pkn,2.40
2022-11-29T03:45:00,pkn,1.20
2022-11-29T03:47:00,pkn,1.20
2022-11-29T03:48:00,pkn,1.20
2022-11-29T03:50:00,pkn,1.20
2022-11-29T03:51:00,pkn,1.20
2022-11-29T03:53:00,pkn,1.20
2022-11-29T03:55:00,pkn,1.20
2022-11-29T03:58:00,pkn,1.20
2022-11-29T03:59:00,pkn,1.20
2022-11-29T04:02:00,pkn,1.20
2022-11-29T04:04:00,pkn,1.20
2022-11-29T04:06:00,pkn,1.20
2022-11-29T04:08:00,pkn,1.20
2022-11-29T04:09:00,pkn,1.20
2022-11-29T04:11:00,pkn,1.20
2022-11-29T04:13:00,pkn,1.20
2022-11-29T04:15:00,pkn,1.20
2022-11-29T04:17:00,pkn,1.20
2022-11-29T04:18:00,pkn,1.20
2022-11-29T04:21:00,pkn,1.20
2022-11-29T04:23:00,pkn,1.20
2022-11-29T04:24:00,pkn,1.20
2022-11-29T04:27:00,pkn,1.20
2022-11-29T04:28:00,pkn,1.20
2022-11-29T04:31:00,pkn,1.20
2022-11-29T04:33:00,pkn,2.40
2022-11-29T04:35:00,pkn,1.20
2022-11-29T04:37:00,pkn,6.00
2022-11-29T04:39:00,pkn,9.60
2022-11-29T04:41:00,pkn,8.40
2022-11-29T04:43:00,pkn,10.80
2022-11-29T04:45:00,pkn,2.40
2022-11-29T04:47:00,pkn,1.20
2022-11-29T04:48:00,pkn,1.20
2022-11-29T04:50:00,pkn,1.20
2022-11-29T04:52:00,pkn,2.40
2022-11-29T04:54:00,pkn,1.20
2022-11-29T04:56:00,pkn,1.20
2022-11-29T04:58:00,pkn,1.20
2022-11-29T05:00:00,pkn,1.20
2022-11-29T05:02:00,pkn,1.20
2022-11-29T05:04:00,pkn,2.40
2022-11-29T05:06:00,pkn,1.20
2022-11-29T05:08:00,pkn,1.20
2022-11-29T05:10:00,pkn,1.20
2022-11-29T05:12:00,pkn,1.20
2022-11-29T05:15:00,pkn,2.40
2022-11-29T05:17:00,pkn,1.20
2022-11-29T05:19:00,pkn,1.20
2022-11-29T05:22:00,pkn,1.20
2022-11-29T05:23:00,pkn,1.20
2022-11-29T05:25:00,pkn,1.20
2022-11-29T05:27:00,pkn,1.20
2022-11-29T05:30:00,pkn,1.20
2022-11-29T05:32:00,pkn,1.20
2022-11-29T05:34:00,pkn,1.20
2022-11-29T05:35:00,pkn,1.20
2022-11-29T05:37:00,pkn,1.20
2022-11-29T05:41:00,pkn,2.40
2022-11-29T05:44:00,pkn,1.20
2022-11-29T05:45:00,pkn,1.20
2022-11-29T05:47:00,pkn,1.20
2022-11-29T05:50:00,pkn,2.40
2022-11-29T05:52:00,pkn,1.20
2022-11-29T05:55:00,pkn,1.20
2022-11-29T05:57:00,pkn,1.20
2022-11-29T05:59:00,pkn,1.20
2022-11-29T06:01:00,pkn,1.20
2022-11-29T06:02:00,pkn,1.20
2022-11-29T06:04:00,pkn,1.20
2022-11-29T06:07:00,pkn,1.20
2022-11-29T06:09:00,pkn,1.20
2022-11-29T06:11:00,pkn,2.40
2022-11-29T06:13:00,pkn,1.20
2022-11-29T06:15:00,pkn,1.20
2022-11-29T06:18:00,pkn,1.20
2022-11-29T06:19:00,pkn,1.20
2022-11-29T06:21:00,pkn,1.20
2022-11-29T06:23:00,pkn,1.20
2022-11-29T06:25:00,pkn,1.20
2022-11-29T06:27:00,pkn,1.20
2022-11-29T06:30:00,pkn,1.20
2022-11-29T06:31:00,pkn,1.20
2022-11-29T06:32:00,pkn,1.20
2022-11-29T06:34:00,pkn,1.20
2022-11-29T06:36:00,pkn,1.20
2022-11-29T06:39:00,pkn,1.20
2022-11-29T06:41:00,pkn,2.40
2022-11-29T06:44:00,pkn,1.20
2022-11-29T06:46:00,pkn,1.20
2022-11-29T06:47:00,pkn,1.20
2022-11-29T06:49:00,pkn,1.20
2022-11-29T06:50:00,pkn,1.20
2022-11-29T06:52:00,pkn,3.60
2022-11-29T06:53:00,pkn,4.80
2022-11-29T06:55:00,pkn,9.60
2022-11-29T06:57:00,pkn,9.60
2022-11-29T06:58:00,pkn,3.60
2022-11-29T06:59:00,pkn,3.60
2022-11-29T07:02:00,pkn,2.40
2022-11-29T07:05:00,pkn,1.20
2022-11-29T07:06:00,pkn,1.20
2022-11-29T07:08:00,pkn,1.20
2022-11-29T07:10:00,pkn,2.40
2022-11-29T07:13:00,pkn,2.40
2022-11-29T07:15:00,pkn,1.20
2022-11-29T07:17:00,pkn,1.20
2022-11-29T07:19:00,pkn,1.20
2022-11-29T07:20:00,pkn,1.20
2022-11-29T07:22:00,pkn,1.20
2022-11-29T07:23:00,pkn,1.20
2022-11-29T07:25:00,pkn,1.20
2022-11-29T07:27:00,pkn,1.20
2022-11-29T07:29:00,pkn,1.20
2022-11-29T07:30:00,pkn,1.20
2022-11-29T07:32:00,pkn,1.20
2022-11-29T07:35:00,pkn,1.20
2022-11-29T07:36:00,pkn,1.20
2022-11-29T07:38:00,pkn,1.20
2022-11-29T07:40:00,pkn,1.20
2022-11-29T07:42:00,pkn,1.20
2022-11-29T07:45:00,pkn,2.40
2022-11-29T07:48:00,pkn,1.20
2022-11-29T07:50:00,pkn,1.20
2022-11-29T07:52:00,pkn,1.20
2022-11-29T07:54:00,pkn,1.20
2022-11-29T07:55:00,pkn,1.20
2022-11-29T07:58:00,pkn,1.20
2022-11-29T07:59:00,pkn,1.20
2022-11-29T08:02:00,pkn,1.20
2022-11-29T08:04:00,pkn,2.40
2022-11-29T08:05:00,pkn,1.20
2022-11-29T08:07:00,pkn,3.60
2022-11-29T08:08:00,pkn,2.40
2022-11-29T08:10:00,pkn,8.40
2022-11-29T08:12:00,pkn,9.60
2022-11-29T08:14:00,pkn,9.60
2022-11-29T08:16:00,pkn,10.80
2022-11-29T08:17:00,pkn,3.60
2022-11-29T08:18:00,pkn,4.80
2022-11-29T08:20:00,pkn,2.40
2022-11-29T08:22:00,pkn,1.20
2022-11-29T08:23:00,pkn,1.20
2022-11-29T08:25:00,pkn,2.40
2022-11-29T08:27:00,pkn,1.20
2022-11-29T08:28:00,pkn,1.20
2022-11-29T08:30:00,pkn,1.20
2022-11-29T08:32:00,pkn,2.40
2022-11-29T08:34:00,pkn,1.20
2022-11-29T08:36:00,pkn,2.40
2022-11-29T08:39:00,pkn,2.40
2022-11-29T08:41:00,pkn,2.40
2022-11-29T08:44:00,pkn,2.40
2022-11-29T08:46:00,pkn,2.40
2022-11-29T08:49:00,pkn,1.20
2022-11-29T08:51:00,pkn,2.40
2022-11-29T08:52:00,pkn,1.20
2022-11-29T08:54:00,pkn,6.00
2022-11-29T08:56:00,pkn,9.60
2022-11-29T08:57:00,pkn,4.80
2022-11-29T08:59:00,pkn,9.60
2022-11-29T09:00:00,pkn,4.80
2022-11-29T09:02:00,pkn,6.00
2022-11-29T09:03:00,pkn,1.20
2022-11-29T09:05:00,pkn,1.20
2022-11-29T09:07:00,pkn,1.20
2022-11-29T09:08:00,pkn,1.20
2022-11-29T09:10:00,pkn,1.20
2022-11-29T09:11:00,pkn,1.20
2022-11-29T09:13:00,pkn,1.20
2022-11-29T09:15:00,pkn,2.40
2022-11-29T09:17:00,pkn,1.20
2022-11-29T09:19:00,pkn,1.20
2022-11-29T09:21:00,pkn,2.40
2022-11-29T09:23:00,pkn,1.20
2022-11-29T09:24:00,pkn,1.20
2022-11-29T09:26:00,pkn,1.20
2022-11-29T09:27:00,pkn,2.40
2022-11-29T09:29:00,pkn,9.60
2022-11-29T09:30:00,pkn,4.80
2022-11-29T09:32:00,pkn,9.60
2022-11-29T09:34:00,pkn,9.60
2022-11-29T09:35:00,pkn,4.80
2022-11-29T09:36:00,pkn,4.80
2022-11-29T09:38:00,pkn,9.60
2022-11-29T09:40:00,pkn,9.60
2022-11-29T09:42:00,pkn,9.60
2022-11-29T09:45:00,pkn,2.40
2022-11-29T09:47:00,pkn,1.20
2022-11-29T09:49:00,pkn,1.20
2022-11-29T09:51:00,pkn,2.40
2022-11-29T09:53:00,pkn,1.20
2022-11-29T09:55:00,pkn,1.20
2022-11-29T09:56:00,pkn,1.20
2022-11-29T09:57:00,pkn,1.20
2022-11-29T09:59:00,pkn,1.20
2022-11-29T10:01:00,pkn,1.20
2022-11-29T10:03:00,pkn,1.20
2022-11-29T10:05:00,pkn,1.20
2022-11-29T10:07:00,pkn,2.40
2022-11-29T10:08:00,pkn,1.20
2022-11-29T10:10:00,pkn,9.60
2022-11-29T10:12:00,pkn,10.80
2022-11-29T10:13:00,pkn,3.60
2022-11-29T10:15:00,pkn,10.80
2022-11-29T10:17:00,pkn,7.20
2022-11-29T10:19:00,pkn,2.40
2022-11-29T10:21:00,pkn,1.20
2022-11-29T10:23:00,pkn,1.20
2022-11-29T10:24:00,pkn,1.20
2022-11-29T10:26:00,pkn,1.20
2022-11-29T10:28:00,pkn,1.20
2022-11-29T10:30:00,pkn,2.40
2022-11-29T10:31:00,pkn,1.20
2022-11-29T10:33:00,pkn,1.20
2022-11-29T10:34:00,pkn,1.20
2022-11-29T10:37:00,pkn,2.40
2022-11-29T10:39:00,pkn,1.20
2022-11-29T10:41:00,pkn,1.20
2022-11-29T10:43:00,pkn,1.20
2022-11-29T10:45:00,pkn,2.40
2022-11-29T10:47:00,pkn,7.20
2022-11-29T10:48:00,pkn,4.80
2022-11-29T10:50:00,pkn,10.80
2022-11-29T10:52:00,pkn,9.60
2022-11-29T10:54:00,pkn,9.60
2022-11-29T10:55:00,pkn,4.80
2022-11-29T10:57:00,pkn,13.20
2022-11-29T10:58:00,pkn,6.00
2022-11-29T11:00:00,pkn,13.20
2022-11-29T11:01:00,pkn,4.80
2022-11-29T11:03:00,pkn,9.60
2022-11-29T11:05:00,pkn,10.80
2022-11-29T11:07:00,pkn,8.40
2022-11-29T11:08:00,pkn,6.00
2022-11-29T11:09:00,pkn,4.80
2022-11-29T11:11:00,pkn,9.60
2022-11-29T11:12:00,pkn,4.80
2022-11-29T11:14:00,pkn,7.20
2022-11-29T11:16:00,pkn,2.40
2022-11-29T11:18:00,pkn,1.20
2022-11-29T11:20:00,pkn,1.20
2022-11-29T11:22:00,pkn,1.20
2022-11-29T11:23:00,pkn,1.20
2022-11-29T11:25:00,pkn,2.40
2022-11-29T11:27:00,pkn,1.20
2022-11-29T11:28:00,pkn,1.20
2022-11-29T11:30:00,pkn,7.20
2022-11-29T11:32:00,pkn,9.60
2022-11-29T11:34:00,pkn,9.60
2022-11-29T11:36:00,pkn,10.80
2022-11-29T11:38:00,pkn,8.40
2022-11-29T11:39:00,pkn,4.80
2022-11-29T11:40:00,pkn,4.80
2022-11-29T11:42:00,pkn,3.60
2022-11-29T11:44:00,pkn,1.20
2022-11-29T11:46:00,pkn,2.40
2022-11-29T11:48:00,pkn,4.80
2022-11-29T11:50:00,pkn,3.60
2022-11-29T11:51:00,pkn,2.40
2022-11-29T11:53:00,pkn,4.80
2022-11-29T11:54:00,pkn,2.40
2022-11-29T11:56:00,pkn,3.60
2022-11-29T11:58:00,pkn,6.00
2022-11-29T12:00:00,pkn,4.80
2022-11-29T12:02:00,pkn,8.40
2022-11-29T12:04:00,pkn,12.00
2022-11-29T12:06:00,pkn,10.80
2022-11-29T12:07:00,pkn,6.00
2022-11-29T12:09:00,pkn,8.40
2022-11-29T12:11:00,pkn,8.40
2022-11-29T12:13:00,pkn,1.20
2022-11-29T12:14:00,pkn,1.20
2022-11-29T12:16:00,pkn,1.20
2022-11-29T12:17:00,pkn,1.20
2022-11-29T12:19:00,pkn,1.20
2022-11-29T12:21:00,pkn,2.40
2022-11-29T12:23:00,pkn,1.20
2022-11-29T12:25:00,pkn,1.20
2022-11-29T12:26:00,pkn,1.20
2022-11-29T12:28:00,pkn,1.20
2022-11-29T12:30:00,pkn,2.40
2022-11-29T12:33:00,pkn,1.20
2022-11-29T12:35:00,pkn,1.20
2022-11-29T12:36:00,pkn,2.40
2022-11-29T12:37:00,pkn,1.20
2022-11-29T12:38:00,pkn,4.80
2022-11-29T12:40:00,pkn,9.60
2022-11-29T12:41:00,pkn,6.00
2022-11-29T12:43:00,pkn,12.00
2022-11-29T12:44:00,pkn,4.80
2022-11-29T12:46:00,pkn,9.60
2022-11-29T12:48:00,pkn,1.20
2022-11-29T12:49:00,pkn,1.20
2022-11-29T12:51:00,pkn,1.20
2022-11-29T12:53:00,pkn,1.20
2022-11-29T12:56:00,pkn,1.20
2022-11-29T12:57:00,pkn,1.20
2022-11-29T12:59:00,pkn,1.20
2022-11-29T13:02:00,pkn,1.20
2022-11-29T13:04:00,pkn,1.20
2022-11-29T13:06:00,pkn,1.20
2022-11-29T13:08:00,pkn,1.20
2022-11-29T13:10:00,pkn,1.20
2022-11-29T13:12:00,pkn,1.20
2022-11-29T13:16:00,pkn,6.00
2022-11-29T13:18:00,pkn,10.80
2022-11-29T13:20:00,pkn,9.60
2022-11-29T13:22:00,pkn,8.40
2022-11-29T13:24:00,pkn,6.00
2022-11-29T13:26:00,pkn,2.40
2022-11-29T13:27:00,pkn,1.20
2022-11-29T13:30:00,pkn,1.20
2022-11-29T13:32:00,pkn,2.40
2022-11-29T13:34:00,pkn,1.20
2022-11-29T13:36:00,pkn,7.20
2022-11-29T13:38:00,pkn,9.60
2022-11-29T13:40:00,pkn,9.60
2022-11-29T13:41:00,pkn,4.80
2022-11-29T13:43:00,pkn,9.60
2022-11-29T13:45:00,pkn,9.60
2022-11-29T13:47:00,pkn,6.00
2022-11-29T13:50:00,pkn,1.20
2022-11-29T13:51:00,pkn,1.20
2022-11-29T13:53:00,pkn,1.20
2022-11-29T13:55:00,pkn,1.20
2022-11-29T13:57:00,pkn,2.40
2022-11-29T13:59:00,pkn,1.20
2022-11-29T14:01:00,pkn,1.20
2022-11-29T14:02:00,pkn,1.20
2022-11-29T14:03:00,pkn,1.20
2022-11-29T14:05:00,pkn,1.20
2022-11-29T14:07:00,pkn,1.20
2022-11-29T14:09:00,pkn,2.40
2022-11-29T14:11:00,pkn,1.20
2022-11-29T14:13:00,pkn,3.60
2022-11-29T14:14:00,pkn,1.20
2022-11-29T14:16:00,pkn,3.60
2022-11-29T14:18:00,pkn,9.60
2022-11-29T14:19:00,pkn,4.80
2022-11-29T14:21:00,pkn,9.60
2022-11-29T14:23:00,pkn,8.40
2022-11-29T14:25:00,pkn,6.00
2022-11-29T14:28:00,pkn,2.40
2022-11-29T14:31:00,pkn,2.40
2022-11-29T14:33:00,pkn,1.20
2022-11-29T14:35:00,pkn,2.40
2022-11-29T14:38:00,pkn,1.20
2022-11-29T14:39:00,pkn,1.20
2022-11-29T14:41:00,pkn,2.40
2022-11-29T14:43:00,pkn,1.20
2022-11-29T14:46:00,pkn,2.40
2022-11-29T14:48:00,pkn,1.20
2022-11-29T14:50:00,pkn,1.20
2022-11-29T14:51:00,pkn,1.20
2022-11-29T14:52:00,pkn,1.20
2022-11-29T14:54:00,pkn,1.20
2022-11-29T14:55:00,pkn,1.20
2022-11-29T14:57:00,pkn,2.40
2022-11-29T14:59:00,pkn,1.20
2022-11-29T15:00:00,pkn,1.20
2022-11-29T15:02:00,pkn,2.40
2022-11-29T15:04:00,pkn,8.40
2022-11-29T15:06:00,pkn,9.60
2022-11-29T15:08:00,pkn,10.80
2022-11-29T15:10:00,pkn,10.80
2022-11-29T15:12:00,pkn,1.20
2022-11-29T15:14:00,pkn,2.40
2022-11-29T15:16:00,pkn,1.20
2022-11-29T15:18:00,pkn,2.40
2022-11-29T15:20:00,pkn,1.20
2022-11-29T15:22:00,pkn,2.40
2022-11-29T15:23:00,pkn,1.20
2022-11-29T15:24:00,pkn,1.20
2022-11-29T15:26:00,pkn,1.20
2022-11-29T15:28:00,pkn,2.40
2022-11-29T15:30:00,pkn,2.40
2022-11-29T15:32:00,pkn,1.20
2022-11-29T15:34:00,pkn,2.40
2022-11-29T15:35:00,pkn,1.20
2022-11-29T15:37:00,pkn,1.20
2022-11-29T15:39:00,pkn,2.40
2022-11-29T15:40:00,pkn,1.20
2022-11-29T15:42:00,pkn,1.20
2022-11-29T15:44:00,pkn,2.40
2022-11-29T15:46:00,pkn,1.20
2022-11-29T15:47:00,pkn,1.20
2022-11-29T15:48:00,pkn,1.20
2022-11-29T15:50:00,pkn,2.40
2022-11-29T15:52:00,pkn,7.20
2022-11-29T15:53:00,pkn,1.20
2022-11-29T15:54:00,pkn,8.40
2022-11-29T15:55:00,pkn,2.40
2022-11-29T15:56:00,pkn,8.40
2022-11-29T15:58:00,pkn,10.80
2022-11-29T15:59:00,pkn,2.40
2022-11-29T16:01:00,pkn,1.20
2022-11-29T16:02:00,pkn,1.20
2022-11-29T16:04:00,pkn,2.40
2022-11-29T16:05:00,pkn,1.20
2022-11-29T16:07:00,pkn,1.20
2022-11-29T16:08:00,pkn,1.20
2022-11-29T16:09:00,pkn,1.20
2022-11-29T16:11:00,pkn,1.20
2022-11-29T16:13:00,pkn,2.40
2022-11-29T16:14:00,pkn,1.20
2022-11-29T16:15:00,pkn,1.20
2022-11-29T16:17:00,pkn,1.20
2022-11-29T16:18:00,pkn,1.20
2022-11-29T16:20:00,pkn,2.40
2022-11-29T16:21:00,pkn,1.20
2022-11-29T16:23:00,pkn,2.40
2022-11-29T16:25:00,pkn,1.20
2022-11-29T16:27:00,pkn,2.40
2022-11-29T16:28:00,pkn,1.20
2022-11-29T16:29:00,pkn,1.20
2022-11-29T16:31:00,pkn,1.20
2022-11-29T16:33:00,pkn,2.40
2022-11-29T16:34:00,pkn,1.20
2022-11-29T16:36:00,pkn,1.20
2022-11-29T16:38:00,pkn,2.40
2022-11-29T16:40:00,pkn,2.40
2022-11-29T16:42:00,pkn,2.40
2022-11-29T16:45:00,pkn,2.40
2022-11-29T16:46:00,pkn,1.20
2022-11-29T16:48:00,pkn,1.20
2022-11-29T16:49:00,pkn,4.80
2022-11-29T16:50:00,pkn,6.00
2022-11-29T16:51:00,pkn,4.80
2022-11-29T16:53:00,pkn,9.60
2022-11-29T16:54:00,pkn,4.80
2022-11-29T16:56:00,pkn,9.60
2022-11-29T16:58:00,pkn,1.20
2022-11-29T16:59:00,pkn,1.20
2022-11-29T17:01:00,pkn,1.20
2022-11-29T17:02:00,pkn,1.20
2022-11-29T17:04:00,pkn,2.40
2022-11-29T17:06:00,pkn,2.40
2022-11-29T17:09:00,pkn,2.40
2022-11-29T17:11:00,pkn,2.40
2022-11-29T17:13:00,pkn,1.20
2022-11-29T17:15:00,pkn,2.40
2022-11-29T17:18:00,pkn,2.40
2022-11-29T17:20:00,pkn,2.40
2022-11-29T17:21:00,pkn,1.20
2022-11-29T17:23:00,pkn,1.20
2022-11-29T17:24:00,pkn,1.20
2022-11-29T17:26:00,pkn,1.20
2022-11-29T17:27:00,pkn,1.20
2022-11-29T17:28:00,pkn,1.20
2022-11-29T17:30:00,pkn,1.20
2022-11-29T17:32:00,pkn,2.40
2022-11-29T17:34:00,pkn,2.40
2022-11-29T17:37:00,pkn,2.40
2022-11-29T17:38:00,pkn,1.20
2022-11-29T17:40:00,pkn,2.40
2022-11-29T17:42:00,pkn,1.20
2022-11-29T17:43:00,pkn,1.20
2022-11-29T17:45:00,pkn,2.40
2022-11-29T17:47:00,pkn,1.20
2022-11-29T17:49:00,pkn,2.40
2022-11-29T17:50:00,pkn,1.20
2022-11-29T17:52:00,pkn,2.40
2022-11-29T17:54:00,pkn,1.20
2022-11-29T17:56:00,pkn,2.40
2022-11-29T17:58:00,pkn,2.40
2022-11-29T18:00:00,pkn,2.40
2022-11-29T18:03:00,pkn,2.40
2022-11-29T18:05:00,pkn,10.80
2022-11-29T18:07:00,pkn,13.20
2022-11-29T18:08:00,pkn,7.20
2022-11-29T18:10:00,pkn,15.60
2022-11-29T18:11:00,pkn,7.20
2022-11-29T18:13:00,pkn,7.20
2022-11-29T18:15:00,pkn,7.20
2022-11-29T18:17:00,pkn,7.20
2022-11-29T18:18:00,pkn,3.60
2022-11-29T18:20:00,pkn,6.00
2022-11-29T18:22:00,pkn,6.00
2022-11-29T18:23:00,pkn,4.80
2022-11-29T18:25:00,pkn,6.00
2022-11-29T18:26:00,pkn,2.40
2022-11-29T18:28:00,pkn,8.40
2022-11-29T18:30:00,pkn,4.80
2022-11-29T18:31:00,pkn,3.60
2022-11-29T18:33:00,pkn,6.00
2022-11-29T18:35:00,pkn,7.20
2022-11-29T18:36:00,pkn,1.20
2022-11-29T18:38:00,pkn,4.80
2022-11-29T18:40:00,pkn,4.80
2022-11-29T18:41:00,pkn,2.40
2022-11-29T18:43:00,pkn,2.40
2022-11-29T18:45:00,pkn,1.20
2022-11-29T18:47:00,pkn,2.40
2022-11-29T18:48:00,pkn,1.20
2022-11-29T18:50:00,pkn,2.40
2022-11-29T18:51:00,pkn,1.20
2022-11-29T18:53:00,pkn,2.40
2022-11-29T18:56:00,pkn,2.40
2022-11-29T18:57:00,pkn,1.20
2022-11-29T18:59:00,pkn,7.20
2022-11-29T19:00:00,pkn,6.00
2022-11-29T19:01:00,pkn,3.60
2022-11-29T19:03:00,pkn,10.80
2022-11-29T19:05:00,pkn,10.80
2022-11-29T19:07:00,pkn,4.80
2022-11-29T19:09:00,pkn,2.40
2022-11-29T19:11:00,pkn,2.40
2022-11-29T19:12:00,pkn,1.20
2022-11-29T19:14:00,pkn,1.20
2022-11-29T19:15:00,pkn,1.20
2022-11-29T19:17:00,pkn,2.40
2022-11-29T19:20:00,pkn,2.40
2022-11-29T19:22:00,pkn,2.40
2022-11-29T19:24:00,pkn,1.20
2022-11-29T19:25:00,pkn,1.20
2022-11-29T19:27:00,pkn,2.40
2022-11-29T19:28:00,pkn,1.20
2022-11-29T19:30:00,pkn,1.20
2022-11-29T19:31:00,pkn,1.20
2022-11-29T19:33:00,pkn,2.40
2022-11-29T19:35:00,pkn,2.40
2022-11-29T19:36:00,pkn,1.20
2022-11-29T19:38:00,pkn,2.40
2022-11-29T19:40:00,pkn,2.40
2022-11-29T19:41:00,pkn,1.20
2022-11-29T19:43:00,pkn,1.20
2022-11-29T19:44:00,pkn,1.20
2022-11-29T19:46:00,pkn,2.40
2022-11-29T19:48:00,pkn,2.40
2022-11-29T19:51:00,pkn,2.40
2022-11-29T19:53:00,pkn,2.40
2022-11-29T19:55:00,pkn,1.20
2022-11-29T19:57:00,pkn,2.40
2022-11-29T19:58:00,pkn,1.20
2022-11-29T20:00:00,pkn,2.40
2022-11-29T20:02:00,pkn,1.20
2022-11-29T20:03:00,pkn,6.00
2022-11-29T20:05:00,pkn,9.60
2022-11-29T20:06:00,pkn,6.00
2022-11-29T20:08:00,pkn,10.80
2022-11-29T20:10:00,pkn,7.20
2022-11-29T20:11:00,pkn,1.20
2022-11-29T20:13:00,pkn,2.40
2022-11-29T20:15:00,pkn,2.40
2022-11-29T20:17:00,pkn,1.20
2022-11-29T20:19:00,pkn,2.40
2022-11-29T20:21:00,pkn,1.20
2022-11-29T20:22:00,pkn,1.20
2022-11-29T20:24:00,pkn,2.40
2022-11-29T20:26:00,pkn,1.20
2022-11-29T20:27:00,pkn,1.20
2022-11-29T20:30:00,pkn,2.40
2022-11-29T20:32:00,pkn,2.40
2022-11-29T20:33:00,pkn,1.20
2022-11-29T20:35:00,pkn,1.20
2022-11-29T20:36:00,pkn,1.20
2022-11-29T20:38:00,pkn,6.00
2022-11-29T20:40:00,pkn,4.80
2022-11-29T20:41:00,pkn,2.40
2022-11-29T20:42:00,pkn,4.80
2022-11-29T20:44:00,pkn,8.40
2022-11-29T20:46:00,pkn,13.20
2022-11-29T20:47:00,pkn,4.80
2022-11-29T20:49:00,pkn,9.60
2022-11-29T20:50:00,pkn,6.00
2022-11-29T20:52:00,pkn,10.80
2022-11-29T20:53:00,pkn,3.60
2022-11-29T20:55:00,pkn,10.80
2022-11-29T20:56:00,pkn,4.80
2022-11-29T20:58:00,pkn,9.60
2022-11-29T20:59:00,pkn,6.00
2022-11-29T21:01:00,pkn,9.60
2022-11-29T21:03:00,pkn,8.40
2022-11-29T21:04:00,pkn,2.40
2022-11-29T21:05:00,pkn,8.40
2022-11-29T21:06:00,pkn,4.80
2022-11-29T21:07:00,pkn,2.40
2022-11-29T21:08:00,pkn,1.20
2022-11-29T21:10:00,pkn,1.20
2022-11-29T21:11:00,pkn,1.20
2022-11-29T21:12:00,pkn,1.20
2022-11-29T21:14:00,pkn,1.20
2022-11-29T21:16:00,pkn,2.40
2022-11-29T21:18:00,pkn,1.20
2022-11-29T21:20:00,pkn,2.40
2022-11-29T21:23:00,pkn,2.40
2022-11-29T21:25:00,pkn,6.00
2022-11-29T21:26:00,pkn,3.60
2022-11-29T21:28:00,pkn,10.80
2022-11-29T21:30:00,pkn,9.60
2022-11-29T21:31:00,pkn,1.20
2022-11-29T21:32:00,pkn,9.60
2022-11-29T21:34:00,pkn,9.60
2022-11-29T21:35:00,pkn,4.80
2022-11-29T21:37:00,pkn,3.60
2022-11-29T21:40:00,pkn,2.40
2022-11-29T21:42:00,pkn,2.40
2022-11-29T21:44:00,pkn,2.40
2022-11-29T21:45:00,pkn,1.20
2022-11-29T21:47:00,pkn,2.40
2022-11-29T21:50:00,pkn,2.40
2022-11-29T21:52:00,pkn,2.40
2022-11-29T21:54:00,pkn,2.40
2022-11-29T21:56:00,pkn,1.20
2022-11-29T21:58:00,pkn,2.40
2022-11-29T22:00:00,pkn,2.40
2022-11-29T22:02:00,pkn,3.60
2022-11-29T22:03:00,pkn,4.80
2022-11-29T22:05:00,pkn,9.60
2022-11-29T22:06:00,pkn,6.00
2022-11-29T22:08:00,pkn,10.80
2022-11-29T22:10:00,pkn,10.80
2022-11-29T22:11:00,pkn,1.20
2022-11-29T22:13:00,pkn,2.40
2022-11-29T22:15:00,pkn,1.20
2022-11-29T22:16:00,pkn,1.20
2022-11-29T22:17:00,pkn,1.20
2022-11-29T22:18:00,pkn,1.20
2022-11-29T22:20:00,pkn,2.40
2022-11-29T22:23:00,pkn,2.40
2022-11-29T22:24:00,pkn,1.20
2022-11-29T22:25:00,pkn,1.20
2022-11-29T22:26:00,pkn,1.20
2022-11-29T22:28:00,pkn,1.20
2022-11-29T22:29:00,pkn,1.20
2022-11-29T22:31:00,pkn,2.40
2022-11-29T22:32:00,pkn,1.20
2022-11-29T22:34:00,pkn,1.20
2022-11-29T22:35:00,pkn,1.20
2022-11-29T22:37:00,pkn,2.40
2022-11-29T22:38:00,pkn,1.20
2022-11-29T22:40:00,pkn,1.20
2022-11-29T22:42:00,pkn,2.40
2022-11-29T22:44:00,pkn,1.20
2022-11-29T22:46:00,pkn,3.60
2022-11-29T22:47:00,pkn,6.00
2022-11-29T22:49:00,pkn,8.40
2022-11-29T22:51:00,pkn,10.80
2022-11-29T22:53:00,pkn,10.80
2022-11-29T22:54:00,pkn,3.60
2022-11-29T22:56:00,pkn,1.20
2022-11-29T22:58:00,pkn,2.40
2022-11-29T22:59:00,pkn,1.20
2022-11-29T23:00:00,pkn,1.20
2022-11-29T23:02:00,pkn,2.40
2022-11-29T23:04:00,pkn,1.20
2022-11-29T23:06:00,pkn,2.40
2022-11-29T23:08:00,pkn,2.40
2022-11-29T23:09:00,pkn,1.20
2022-11-29T23:11:00,pkn,1.20
2022-11-29T23:12:00,pkn,1.20
2022-11-29T23:14:00,pkn,2.40
2022-11-29T23:16:00,pkn,1.20
2022-11-29T23:18:00,pkn,2.40
2022-11-29T23:20:00,pkn,2.40
2022-11-29T23:21:00,pkn,1.20
2022-11-29T23:23:00,pkn,2.40
2022-11-29T23:25:00,pkn,1.20
2022-11-29T23:26:00,pkn,1.20
2022-11-29T23:27:00,pkn,1.20
2022-11-29T23:29:00,pkn,2.40
2022-11-29T23:30:00,pkn,1.20
2022-11-29T23:32:00,pkn,2.40
2022-11-29T23:33:00,pkn,1.20
2022-11-29T23:35:00,pkn,3.60
2022-11-29T23:36:00,pkn,3.60
2022-11-29T23:38:00,pkn,10.80
2022-11-29T23:40:00,pkn,10.80
2022-11-29T23:42:00,pkn,9.60
2022-11-29T23:43:00,pkn,6.00
2022-11-29T23:45:00,pkn,10.80
2022-11-29T23:46:00,pkn,4.80
2022-11-29T23:48:00,pkn,10.80
2022-11-29T23:49:00,pkn,4.80
2022-11-29T23:51:00,pkn,9.60
2022-11-29T23:53:00,pkn,10.80
2022-11-29T23:55:00,pkn,9.60
2022-11-29T23:56:00,pkn,4.80
2022-11-29T23:58:00,pkn,9.60
